Location: Dannhausen
(51.8650°N, 10.1026°E)
Time: 02:15:45
(UTC+00:00)

Cosmos 2233 Rocket - Pass Details

Date: 14 August 2020
Orbit: 952 x 992 km, 82.9° (Epoch: 26 September)

Event Time Altitude Azimuth Distance (km) Brightness Sun altitude
Exits shadow 20:25:24 14° 106° (ESE) 2,482 5.6 -13.6°
Maximum altitude 20:28:03 18° 77° (ENE) 2,243 5.6 -13.9°
Drops below altitude 10° 20:32:02 10° 38° (NE) 2,764 6.5 -14.3°
Sets 20:35:24 0° 20° (NNE) 3,715 7.4 -14.7°
